| time (UTC) | temp F | wind direction | speed MPH | gust MPH | rain 1hr in | rain 24hr in | rain mn in | humidity % | barometer mb |
| 20260906191503 | 100 | 182 | 0.0 | 3.0 | 0.00 | 0.00 | 0.00 | 21 | 1011.5 |
| 20260906190002 | 99 | 182 | 0.0 | 6.0 | 0.00 | 0.00 | 0.00 | 22 | 1011.8 |
| 20260906184500 | 100 | 189 | 1.0 | 4.0 | 0.00 | 0.00 | 0.00 | 22 | 1012.1 |
| 20260906183100 | 100 | 194 | 0.0 | 5.0 | 0.00 | 0.00 | 0.00 | 22 | 1012.3 |
| 20260906183001 | 100 | 194 | 0.0 | 5.0 | 0.00 | 0.00 | 0.00 | 22 | 1012.2 |
| 20260906181558 | 99 | 196 | 0.0 | 3.0 | 0.00 | 0.00 | 0.00 | 23 | 1012.7 |
| 20260906180117 | 99 | 201 | 0.0 | 9.0 | 0.00 | 0.00 | 0.00 | 23 | 1013.1 |
| 20260906174602 | 98 | 228 | 0.0 | 5.0 | 0.00 | 0.00 | 0.00 | 25 | 1013.3 |
| 20260906173058 | 98 | 228 | 3.0 | 7.0 | 0.00 | 0.00 | 0.00 | 24 | 1013.5 |
| 20260906171548 | 97 | 228 | 0.0 | 3.0 | 0.00 | 0.00 | 0.00 | 25 | 1013.8 |
| 20260906170046 | 96 | 228 | 0.0 | 5.0 | 0.00 | 0.00 | 0.00 | 27 | 1014.0 |
| 20260906164540 | 96 | 228 | 3.0 | 7.0 | 0.00 | 0.00 | 0.00 | 28 | 1014.1 |
| 20260906163035 | 95 | 218 | 0.0 | 2.0 | 0.00 | 0.00 | 0.00 | 30 | 1014.2 |
| 20260906161532 | 93 | 218 | 0.0 | 5.0 | 0.00 | 0.00 | 0.00 | 30 | 1014.3 |
| 20260906160032 | 94 | 218 | 1.0 | 4.0 | 0.00 | 0.00 | 0.00 | 29 | 1014.0 |
| 20260906154530 | 94 | 205 | 0.0 | 4.0 | 0.00 | 0.00 | 0.00 | 30 | 1014.0 |
| 20260906153031 | 93 | 199 | 0.0 | 4.0 | 0.00 | 0.00 | 0.00 | 31 | 1013.8 |
| 20260906151513 | 91 | 200 | 1.0 | 5.0 | 0.00 | 0.00 | 0.00 | 33 | 1013.8 |
| 20260906150019 | 91 | 186 | 1.0 | 5.0 | 0.00 | 0.00 | 0.00 | 33 | 1013.8 |
| 20260906144507 | 89 | 186 | 0.0 | 3.0 | 0.00 | 0.00 | 0.00 | 37 | 1013.7 |
| 20260906143003 | 87 | 186 | 0.0 | 4.0 | 0.00 | 0.00 | 0.00 | 40 | 1013.7 |
| 20260906141503 | 86 | 186 | 1.0 | 5.0 | 0.00 | 0.00 | 0.00 | 41 | 1013.7 |
| 20260906140002 | 86 | 186 | 0.0 | 4.0 | 0.00 | 0.00 | 0.00 | 41 | 1013.7 |
| 20260906134502 | 84 | 186 | 0.0 | 2.0 | 0.00 | 0.00 | 0.00 | 43 | 1013.6 |
| 20260906133109 | 83 | 186 | 0.0 | 3.0 | 0.00 | 0.00 | 0.00 | 45 | 1013.6 |
| 20260906131559 | 80 | 186 | 0.0 | 1.0 | 0.00 | 0.00 | 0.00 | 49 | 1013.5 |
| 20260906130058 | 79 | 186 | 0.0 | 1.0 | 0.00 | 0.00 | 0.00 | 51 | 1013.2 |
| 20260906124555 | 78 | 186 | 0.0 | 2.0 | 0.00 | 0.00 | 0.00 | 51 | 1013.1 |
| 20260906123058 | 78 | 186 | 0.0 | 3.0 | 0.00 | 0.00 | 0.00 | 52 | 1012.8 |
| 20260906121552 | 78 | 186 | 0.0 | 0.0 | 0.00 | 0.00 | 0.00 | 51 | 1012.6 |
| 20260906120052 | 78 | 186 | 0.0 | 1.0 | 0.00 | 0.00 | 0.00 | 51 | 1012.5 |
| 20260906114549 | 78 | 186 | 0.0 | 2.0 | 0.00 | 0.00 | 0.00 | 51 | 1012.4 |
| 20260906113047 | 78 | 186 | 0.0 | 1.0 | 0.00 | 0.00 | 0.00 | 52 | 1012.2 |
| 20260906111547 | 78 | 186 | 0.0 | 0.0 | 0.00 | 0.00 | 0.00 | 51 | 1012.0 |
| 20260906110051 | 79 | 186 | 0.0 | 0.0 | 0.00 | 0.00 | 0.00 | 49 | 1012.1 |
| 20260906104540 | 80 | 186 | 0.0 | 0.0 | 0.00 | 0.00 | 0.00 | 48 | 1012.1 |
| 20260906103055 | 80 | 186 | 0.0 | 0.0 | 0.00 | 0.00 | 0.00 | 47 | 1011.9 |
| 20260906101538 | 81 | 186 | 0.0 | 1.0 | 0.00 | 0.00 | 0.00 | 47 | 1012.1 |
| 20260906100036 | 81 | 186 | 0.0 | 2.0 | 0.00 | 0.00 | 0.00 | 47 | 1011.9 |
| 20260906094535 | 81 | 186 | 0.0 | 3.0 | 0.00 | 0.00 | 0.00 | 45 | 1011.9 |
| 20260906093038 | 81 | 186 | 0.0 | 2.0 | 0.00 | 0.00 | 0.00 | 45 | 1011.8 |
| 20260906091532 | 81 | 186 | 0.0 | 1.0 | 0.00 | 0.00 | 0.00 | 46 | 1011.8 |
| 20260906090050 | 82 | 186 | 0.0 | 2.0 | 0.00 | 0.00 | 0.00 | 45 | 1011.7 |
| 20260906084528 | 82 | 186 | 0.0 | 2.0 | 0.00 | 0.00 | 0.00 | 45 | 1011.7 |
| 20260906083033 | 82 | 186 | 1.0 | 3.0 | 0.00 | 0.00 | 0.00 | 44 | 1011.5 |
| 20260906081526 | 83 | 186 | 1.0 | 2.0 | 0.00 | 0.00 | 0.00 | 44 | 1011.6 |
| 20260906080023 | 83 | 186 | 0.0 | 2.0 | 0.00 | 0.00 | 0.00 | 42 | 1011.5 |
| 20260906074522 | 83 | 186 | 0.0 | 2.0 | 0.00 | 0.00 | 0.00 | 42 | 1011.5 |
| 20260906073020 | 84 | 186 | 0.0 | 2.0 | 0.00 | 0.00 | 0.00 | 41 | 1011.5 |
| 20260906071520 | 84 | 186 | 0.0 | 4.0 | 0.00 | 0.00 | 0.00 | 40 | 1011.3 |
| 20260906070019 | 84 | 186 | 1.0 | 3.0 | 0.00 | 0.00 | 0.00 | 41 | 1011.3 |
| 20260906064517 | 84 | 186 | 2.0 | 4.0 | 0.00 | 0.00 | 0.00 | 40 | 1011.3 |
| 20260906063028 | 85 | 186 | 1.0 | 3.0 | 0.00 | 0.00 | 0.00 | 40 | 1011.3 |
| 20260906061518 | 85 | 186 | 2.0 | 4.0 | 0.00 | 0.00 | 0.00 | 40 | 1011.3 |
| 20260906060014 | 85 | 186 | 2.0 | 4.0 | 0.00 | 0.00 | 0.00 | 39 | 1011.5 |
| 20260906054511 | 86 | 186 | 1.0 | 4.0 | 0.00 | 0.00 | 0.00 | 38 | 1011.4 |
| 20260906053008 | 87 | 186 | 1.0 | 4.0 | 0.00 | 0.00 | 0.00 | 37 | 1011.4 |
| 20260906051507 | 87 | 186 | 2.0 | 4.0 | 0.00 | 0.00 | 0.00 | 36 | 1011.4 |
| 20260906050006 | 88 | 186 | 2.0 | 4.0 | 0.00 | 0.00 | 0.00 | 36 | 1011.4 |
| 20260906044503 | 88 | 186 | 0.0 | 4.0 | 0.00 | 0.00 | 0.00 | 36 | 1011.3 |
| 20260906043003 | 89 | 186 | 1.0 | 3.0 | 0.00 | 0.00 | 0.00 | 35 | 1011.3 |
| 20260906041503 | 89 | 186 | 1.0 | 4.0 | 0.00 | 0.00 | 0.00 | 34 | 1011.4 |
| 20260906040004 | 89 | 186 | 2.0 | 4.0 | 0.00 | 0.00 | 0.00 | 34 | 1011.3 |
| 20260906034502 | 90 | 186 | 1.0 | 3.0 | 0.00 | 0.00 | 0.00 | 34 | 1011.0 |
| 20260906033102 | 90 | 186 | 0.0 | 3.0 | 0.00 | 0.00 | 0.00 | 33 | 1010.8 |
| 20260906031601 | 91 | 186 | 2.0 | 6.0 | 0.00 | 0.00 | 0.00 | 32 | 1011.1 |
| 20260906030100 | 91 | 188 | 1.0 | 6.0 | 0.00 | 0.00 | 0.00 | 32 | 1010.9 |
| 20260906024559 | 91 | 190 | 0.0 | 2.0 | 0.00 | 0.00 | 0.00 | 33 | 1010.9 |
| 20260906023059 | 91 | 190 | 0.0 | 2.0 | 0.00 | 0.00 | 0.00 | 32 | 1010.5 |
| 20260906021603 | 91 | 190 | 0.0 | 2.0 | 0.00 | 0.00 | 0.00 | 31 | 1010.4 |
| 20260906020105 | 92 | 190 | 0.0 | 2.0 | 0.00 | 0.00 | 0.00 | 31 | 1010.1 |
| 20260906014557 | 92 | 190 | 0.0 | 1.0 | 0.00 | 0.00 | 0.00 | 30 | 1010.0 |
| 20260906013105 | 92 | 190 | 0.0 | 0.0 | 0.00 | 0.00 | 0.00 | 29 | 1009.9 |
| 20260906011556 | 93 | 190 | 0.0 | 1.0 | 0.00 | 0.00 | 0.00 | 28 | 1009.7 |
| 20260906010056 | 94 | 190 | 0.0 | 4.0 | 0.00 | 0.00 | 0.00 | 28 | 1009.7 |
| 20260906004558 | 95 | 190 | 1.0 | 7.0 | 0.00 | 0.00 | 0.00 | 27 | 1009.5 |
| 20260906003054 | 95 | 191 | 0.0 | 5.0 | 0.00 | 0.00 | 0.00 | 26 | 1009.4 |
| 20260906001553 | 96 | 192 | 1.0 | 7.0 | 0.00 | 0.00 | 0.00 | 25 | 1009.4 |
| 20260906000104 | 97 | 192 | 0.0 | 11.0 | 0.00 | 0.00 | 0.00 | 25 | 1009.6 |
| 20260905234608 | 98 | 155 | 4.0 | 10.0 | 0.00 | 0.00 | 0.00 | 23 | 1009.6 |
| 20260905233051 | 98 | 204 | 1.0 | 14.0 | 0.00 | 0.00 | 0.00 | 22 | 1009.6 |
| 20260905231554 | 99 | 202 | 4.0 | 14.0 | 0.00 | 0.00 | 0.00 | 21 | 1009.6 |
| 20260905230054 | 100 | 192 | 4.0 | 12.0 | 0.00 | 0.00 | 0.00 | 21 | 1009.6 |
| 20260905224552 | 100 | 177 | 4.0 | 16.0 | 0.00 | 0.00 | 0.00 | 21 | 1009.7 |
| 20260905223051 | 101 | 198 | 8.0 | 16.0 | 0.00 | 0.00 | 0.00 | 20 | 1009.5 |
| 20260905221554 | 101 | 165 | 2.0 | 9.0 | 0.00 | 0.00 | 0.00 | 19 | 1009.7 |
| 20260905220050 | 101 | 194 | 3.0 | 12.0 | 0.00 | 0.00 | 0.00 | 20 | 1009.6 |
| 20260905214547 | 101 | 150 | 6.0 | 14.0 | 0.00 | 0.00 | 0.00 | 20 | 1009.5 |
| 20260905213045 | 101 | 234 | 6.0 | 15.0 | 0.00 | 0.00 | 0.00 | 21 | 1009.5 |
| 20260905211544 | 100 | 198 | 3.0 | 18.0 | 0.00 | 0.00 | 0.00 | 22 | 1009.6 |
| 20260905210054 | 100 | 166 | 2.0 | 10.0 | 0.00 | 0.00 | 0.00 | 23 | 1009.9 |
| 20260905204540 | 99 | 186 | 1.0 | 6.0 | 0.00 | 0.00 | 0.00 | 22 | 1010.1 |
| 20260905203052 | 101 | 190 | 2.0 | 19.0 | 0.00 | 0.00 | 0.00 | 23 | 1010.4 |
| 20260905201535 | 101 | 213 | 4.0 | 16.0 | 0.00 | 0.00 | 0.00 | 23 | 1010.6 |
| 20260905200033 | 101 | 194 | 1.0 | 7.0 | 0.00 | 0.00 | 0.00 | 24 | 1010.8 |
| 20260905194532 | 100 | 224 | 5.0 | 19.0 | 0.00 | 0.00 | 0.00 | 24 | 1010.9 |
| 20260905193027 | 100 | 132 | 1.0 | 8.0 | 0.00 | 0.00 | 0.00 | 25 | 1011.1 |